STARLINK-34156, 64108

Orbit data source: Space-Track

STARLINK-34156, 64108 is a payload satellite owned by SpaceX/Seattle (US) in LEO that was launched on Fri, 23 May 2025 UTC via an FALCON 9 launch vehicle from the Air Force Western Test Range (AFWTR). Payload-class satellites include a variety of spacecraft equipped with specific instruments for various scientific and technological missions. These include communications satellites like Starlink; space stations such as the ISS; scientific satellites like the Hubble; Earth observation satellites from companies like Planet Labs, Umbra, and HawkEye 360; GPS; miniature CubeSats for education and research; and military/defense satellites.

Loading next visibility...
Identifier
64108, 2025-110N
Orbit
LEO
Country
Flag of USUS
Related business
Manufacturer
SpaceX/Seattle
Mission
Operational Commercial Communications
Bus & Motor
STARLINK V2MO, Unknown motor
Mass
575 kg wet, ~530 kg dry
Launch date (UTC)
2025-05-23 (1 year ago)
Launch vehicle
FALCON 9
Launch site
Air Force Western Test Range (AFWTR)
Object type
Payload
Rocket body
Debris
Shape & HBR
Box + 2 Pan, 17.7 m
Radar Cross Section
36.964 m², Large (>1 m²)

Expand to show TLE details & history
Last TLE update: 9 hours ago

TLE from 9 hours ago
0 STARLINK-34156
1 64108U 25110N   26171.45538425  .00015903  00000-0  52274-3 0  9992
2 64108  53.1593 268.9112 0001446  54.0082 306.1053 15.31723926 61622
Epoch: 2026-06-20T10:55Z
TLE epoch observation values (Epoch: 2026-06-20T10:55:45.199Z)
Latitude
-0.00003°
Longitude
-163.69691°
Altitude
470.985 km
Speed
7.632 km/s
True Right ascension
17h 55m 38s
True Declination
0° 00' 00"
Sunlit
Object was in full shadow at epoch
Visualization orbit readout
Latitude
Unknown
Longitude
Unknown
Altitude
Unknown
Speed
Unknown
Apparent Right ascension
Unknown
Apparent Declination
Unknown
Sunlit
N/A
Visualization observer readout
Local Sidereal Time
07:16:06
Azimuth
Unknown
Elevation
Unknown
Doppler factor
Unknown
Orbital elements
Apogee altitude
471.916 km
Perigee altitude
469.935 km
Semi-major axis
6,849.062 km
Eccentricity
0.00014
Inclination
53.1593°
RAAN
268.9112°
Arg. of periapsis
54.0082°
True anomaly
306.09191°
Mean anomaly
306.1053°
Eccentric anomaly
306.09861°
Mean motion
3.8291 °/min
Orbital period
94.02 mins
BSTAR
0.00052274
Loading maneuver chart data...
Computing Atmospheric mass density...
Loading historical data...
Loading historical data...
Loading historical data...
Loading historical data...
Loading historical data...
Loading historical data...
Loading historical data...

Documentation

Showing up to 5 results
|